User: anonymous   Login
Location: Bílinka
(49.3579°N, 14.3767°E)
Time: 00:40:34
(UTC+00:00)
Language:

Cosmos 1726 Rocket - Orbit

View from above orbital plane
View from above orbital plane
View from above satellite
View from above satellite

Ground track
Ground track

The orbit data is extracted from the following two-line orbital elements,

1 16496U 86006B   23156.44971703  .00000518  00000-0  58135-4 0  9998
2 16496  82.5234 126.9423 0020752  76.3231  43.3419 14.84703167999492
Epoch (UTC): 05 June 2023 10:47:35
Eccentricity: 0.0020752
inclination: 82.5234°
perigee height: 600 km
apogee height: 629 km
right ascension of ascending node: 126.9423°
argument of perigee: 76.3231°
revolutions per day: 14.84703167
mean anomaly at epoch: 43.3419°
orbit number at epoch: 99949

The dashed part of the orbit path shows where the satellite is in the earth's shadow,  

DLR